STARLINK-31880, 59661

Orbit data source: Space-Track

STARLINK-31880, 59661 is a payload satellite owned by SpaceX/Seattle (US) in LEO that was launched on Mon, 06 May 2024 UTC via an FALCON 9 launch vehicle from the Air Force Eastern Test Range (AFETR). Payload-class satellites include a variety of spacecraft equipped with specific instruments for various scientific and technological missions. These include communications satellites like Starlink; space stations such as the ISS; scientific satellites like the Hubble; Earth observation satellites from companies like Planet Labs, Umbra, and HawkEye 360; GPS; miniature CubeSats for education and research; and military/defense satellites.

Loading next visibility...
Identifier
59661, 2024-084H
Orbit
LEO
Country
Flag of USUS
Related business
Manufacturer
SpaceX/Seattle
Mission
Operational Commercial Communications
Bus & Motor
STARLINK V2M, Unknown motor
Mass
730 kg wet, ~700 kg dry
Launch date (UTC)
2024-05-06 (1 year ago)
Launch vehicle
FALCON 9
Launch site
Air Force Eastern Test Range (AFETR)
Object type
Payload
Rocket body
Debris
Shape & HBR
Box + 2 Pan, 17.7 m
Radar Cross Section
33.884 m², Large (>1 m²)

Expand to show TLE details & history
Last TLE update: 6 hours ago

TLE from 6 hours ago
0 STARLINK-31880
1 59661U 24084H   25288.65470805  .00020744  00000-0  76319-3 0  9991
2 59661  43.0010 137.2702 0000903 261.0359  99.0390 15.27495831 82237
Epoch: 2025-10-15T15:42Z
TLE epoch observation values (Epoch: 2025-10-15T15:42:46.775Z)
Latitude
-0.00005°
Longitude
-122.85042°
Altitude
483.174 km
Speed
7.626 km/s
True Right ascension
09h 09m 04s
True Declination
0° 00' 00"
Sunlit
Object was in daylight at epoch
Visualization orbit readout
Latitude
Unknown
Longitude
Unknown
Altitude
Unknown
Speed
Unknown
Apparent Right ascension
Unknown
Apparent Declination
Unknown
Sunlit
N/A
Visualization observer readout
Local Sidereal Time
15:57:49
Azimuth
Unknown
Elevation
Unknown
Doppler factor
Unknown
Orbital elements
Apogee altitude
485.866 km
Perigee altitude
484.626 km
Semi-major axis
6,863.383 km
Eccentricity
0.00009
Inclination
43.001°
RAAN
137.2702°
Arg. of periapsis
261.0359°
True anomaly
99.04922°
Mean anomaly
99.039°
Eccentric anomaly
99.04411°
Mean motion
3.81712 °/min
Orbital period
94.31 mins
BSTAR
0.00076319
Loading maneuver chart data...
Computing Atmospheric mass density...
Loading historical data...
Loading historical data...
Loading historical data...
Loading historical data...
Loading historical data...
Loading historical data...
Loading historical data...

Documentation

Showing up to 5 results
|